JLY7290 SBPV-SBEG

Flight info

Callsign JLY7290
Flight time 1h 13m
Altitude 33000
Route MUPEG UZ74 IGAPO
Aircraft A320/M-SDE3FGHIRWY/LB1

Departure

Time 2026-05-07 01:19
Airport Governador Jorge Teixeira de Oliveira International Airport (SBPV)

Arrival

Time 2026-05-07 02:32
Airport Eduardo Gomes International Airport (SBEG)
Time Latitude Longitude Altitude Speed Heading
2026-05-07 01:03 -8.71420 -63.89930 256 ft 0 kts 86°
2026-05-07 01:12 -8.71420 -63.89938 301 ft 4 kts 86°
2026-05-07 01:12 -8.71422 -63.89965 299 ft 4 kts 86°
2026-05-07 01:13 -8.71424 -63.89992 299 ft 4 kts 87°
2026-05-07 01:13 -8.71425 -63.90019 299 ft 4 kts 94°
2026-05-07 01:13 -8.71418 -63.90044 301 ft 4 kts 130°
2026-05-07 01:13 -8.71398 -63.90057 299 ft 3 kts 176°
2026-05-07 01:14 -8.71391 -63.90058 299 ft 0 kts 177°
2026-05-07 01:15 -8.71405 -63.90057 300 ft 7 kts 177°
2026-05-07 01:16 -8.71489 -63.90052 299 ft 16 kts 176°
2026-05-07 01:16 -8.71601 -63.90046 300 ft 16 kts 176°
2026-05-07 01:16 -8.71707 -63.90039 301 ft 14 kts 176°
2026-05-07 01:16 -8.71801 -63.90033 299 ft 13 kts 176°
2026-05-07 01:17 -8.71881 -63.90044 301 ft 11 kts 203°
2026-05-07 01:17 -8.71934 -63.90086 299 ft 9 kts 222°
2026-05-07 01:17 -8.71971 -63.90127 299 ft 7 kts 245°
2026-05-07 01:17 -8.71966 -63.90163 301 ft 4 kts 314°
2026-05-07 01:18 -8.71940 -63.90170 302 ft 6 kts 353°
2026-05-07 01:18 -8.71923 -63.90171 301 ft 0 kts 356°
2026-05-07 01:18 -8.71847 -63.90175 301 ft 40 kts 356°
2026-05-07 01:18 -8.71320 -63.90207 301 ft 107 kts 356°
2026-05-07 01:19 -8.70393 -63.90262 315 ft 156 kts 356°
2026-05-07 01:19 -8.69345 -63.90327 927 ft 148 kts 356°
2026-05-07 01:19 -8.68255 -63.90398 1256 ft 166 kts 356°
2026-05-07 01:19 -8.67030 -63.90476 1487 ft 189 kts 357°
2026-05-07 01:20 -8.65614 -63.90557 1606 ft 220 kts 357°
2026-05-07 01:20 -8.64014 -63.90449 1921 ft 243 kts 21°
2026-05-07 01:20 -8.62590 -63.89428 2407 ft 261 kts 41°
2026-05-07 01:20 -8.61251 -63.88214 3380 ft 257 kts 42°
2026-05-07 01:21 -8.59917 -63.86985 4198 ft 262 kts 42°
2026-05-07 01:21 -8.58546 -63.85757 5014 ft 266 kts 41°
2026-05-07 01:21 -8.57124 -63.84538 5784 ft 271 kts 40°
2026-05-07 01:21 -8.55654 -63.83321 6557 ft 275 kts 39°
2026-05-07 01:22 -8.54174 -63.82121 7273 ft 279 kts 39°
2026-05-07 01:22 -8.52647 -63.80896 8013 ft 282 kts 39°
2026-05-07 01:22 -8.51092 -63.79660 8747 ft 286 kts 39°
2026-05-07 01:22 -8.49519 -63.78414 9481 ft 289 kts 39°
2026-05-07 01:23 -8.47922 -63.77149 10166 ft 294 kts 39°
2026-05-07 01:23 -8.46270 -63.75833 10439 ft 314 kts 40°
2026-05-07 01:23 -8.44493 -63.74414 10579 ft 337 kts 40°
2026-05-07 01:23 -8.42611 -63.72911 10889 ft 351 kts 39°
2026-05-07 01:24 -8.40678 -63.71373 11454 ft 356 kts 39°
2026-05-07 01:24 -8.38746 -63.69842 12058 ft 360 kts 39°
2026-05-07 01:24 -8.36768 -63.68277 12667 ft 363 kts 39°
2026-05-07 01:24 -8.34770 -63.66697 13279 ft 366 kts 39°
2026-05-07 01:25 -8.32755 -63.65103 13872 ft 369 kts 39°
2026-05-07 01:25 -8.30728 -63.63497 14388 ft 372 kts 39°
2026-05-07 01:25 -8.28686 -63.61877 14923 ft 375 kts 40°
2026-05-07 01:25 -8.26630 -63.60242 15460 ft 377 kts 40°
2026-05-07 01:26 -8.24536 -63.58637 15989 ft 380 kts 37°
2026-05-07 01:26 -8.22390 -63.57128 16485 ft 383 kts 36°
2026-05-07 01:26 -8.20161 -63.55644 17005 ft 385 kts 35°
2026-05-07 01:26 -8.17901 -63.54172 17514 ft 388 kts 34°
2026-05-07 01:27 -8.15626 -63.52694 18029 ft 390 kts 35°
2026-05-07 01:27 -8.13348 -63.51199 18493 ft 392 kts 35°
2026-05-07 01:27 -8.11058 -63.49679 18920 ft 395 kts 35°
2026-05-07 01:27 -8.08763 -63.48140 19358 ft 397 kts 36°
2026-05-07 01:28 -8.06456 -63.46586 19786 ft 400 kts 36°
2026-05-07 01:28 -8.04134 -63.45017 20208 ft 403 kts 36°
2026-05-07 01:28 -8.01832 -63.43462 20620 ft 406 kts 36°
2026-05-07 01:28 -7.99477 -63.41873 21034 ft 408 kts 36°
2026-05-07 01:29 -7.97109 -63.40278 21435 ft 411 kts 35°
2026-05-07 01:29 -7.94720 -63.38671 21832 ft 414 kts 35°
2026-05-07 01:29 -7.92320 -63.37057 22217 ft 416 kts 35°
2026-05-07 01:29 -7.89901 -63.35433 22596 ft 419 kts 35°
2026-05-07 01:30 -7.87467 -63.33799 22964 ft 422 kts 35°
2026-05-07 01:30 -7.85018 -63.32155 23327 ft 424 kts 35°
2026-05-07 01:30 -7.82588 -63.30525 23665 ft 427 kts 35°
2026-05-07 01:30 -7.80077 -63.28841 23956 ft 429 kts 35°
2026-05-07 01:31 -7.77582 -63.27169 24251 ft 431 kts 35°
2026-05-07 01:31 -7.75082 -63.25491 24548 ft 433 kts 35°
2026-05-07 01:31 -7.72568 -63.23803 24832 ft 435 kts 35°
2026-05-07 01:31 -7.70080 -63.22135 25110 ft 437 kts 35°
2026-05-07 01:32 -7.67542 -63.20434 25394 ft 439 kts 35°
2026-05-07 01:32 -7.64999 -63.18729 25669 ft 440 kts 35°
2026-05-07 01:32 -7.62444 -63.17014 25937 ft 442 kts 35°
2026-05-07 01:32 -7.59877 -63.15290 26208 ft 444 kts 35°
2026-05-07 01:33 -7.57300 -63.13557 26468 ft 446 kts 35°
2026-05-07 01:33 -7.54717 -63.11817 26730 ft 448 kts 35°
2026-05-07 01:33 -7.52122 -63.10071 26984 ft 450 kts 35°
2026-05-07 01:33 -7.49515 -63.08319 27235 ft 452 kts 35°
2026-05-07 01:34 -7.46891 -63.06565 27482 ft 453 kts 34°
2026-05-07 01:34 -7.44292 -63.04835 27728 ft 455 kts 34°
2026-05-07 01:34 -7.41643 -63.03072 27963 ft 457 kts 34°
2026-05-07 01:34 -7.38989 -63.01306 28193 ft 459 kts 34°
2026-05-07 01:35 -7.36321 -62.99528 28420 ft 460 kts 34°
2026-05-07 01:35 -7.33643 -62.97743 28633 ft 462 kts 35°
2026-05-07 01:35 -7.30959 -62.95951 28845 ft 464 kts 35°
2026-05-07 01:35 -7.28265 -62.94151 29056 ft 466 kts 35°
2026-05-07 01:36 -7.25560 -62.92342 29247 ft 467 kts 35°
2026-05-07 01:36 -7.22843 -62.90530 29443 ft 469 kts 34°
2026-05-07 01:36 -7.20124 -62.88718 29626 ft 470 kts 34°
2026-05-07 01:36 -7.17426 -62.86916 29816 ft 472 kts 35°
2026-05-07 01:37 -7.14690 -62.85088 30062 ft 472 kts 35°
2026-05-07 01:37 -7.11964 -62.83266 30300 ft 471 kts 35°
2026-05-07 01:37 -7.09235 -62.81444 30536 ft 470 kts 34°
2026-05-07 01:37 -7.06509 -62.79629 30783 ft 469 kts 34°
2026-05-07 01:38 -7.03787 -62.77818 31009 ft 468 kts 34°
2026-05-07 01:38 -7.01072 -62.76010 31249 ft 468 kts 34°
2026-05-07 01:38 -6.98358 -62.74202 31484 ft 467 kts 34°
2026-05-07 01:38 -6.95652 -62.72401 31727 ft 466 kts 34°
2026-05-07 01:39 -6.92947 -62.70601 31969 ft 466 kts 34°
2026-05-07 01:39 -6.90287 -62.68825 32206 ft 465 kts 34°
2026-05-07 01:39 -6.87596 -62.67019 32445 ft 465 kts 34°
2026-05-07 01:39 -6.84902 -62.65212 32684 ft 465 kts 34°
2026-05-07 01:40 -6.82215 -62.63409 32909 ft 465 kts 34°
2026-05-07 01:40 -6.76813 -62.59781 33007 ft 471 kts 34°
2026-05-07 01:41 -6.71336 -62.56098 33009 ft 475 kts 34°
2026-05-07 01:41 -6.65872 -62.52430 33013 ft 476 kts 34°
2026-05-07 01:42 -6.60362 -62.48736 33014 ft 476 kts 34°
2026-05-07 01:42 -6.54843 -62.45041 33015 ft 477 kts 34°
2026-05-07 01:43 -6.49327 -62.41349 33015 ft 476 kts 34°
2026-05-07 01:43 -6.43833 -62.37707 33015 ft 476 kts 34°
2026-05-07 01:44 -6.38290 -62.34052 33020 ft 476 kts 33°
2026-05-07 01:44 -6.32746 -62.30395 33018 ft 476 kts 34°
2026-05-07 01:45 -6.27208 -62.26736 33026 ft 476 kts 34°
2026-05-07 01:45 -6.21673 -62.23069 33020 ft 477 kts 34°
2026-05-07 01:46 -6.16171 -62.19429 33024 ft 477 kts 34°
2026-05-07 01:46 -6.10626 -62.15772 33021 ft 477 kts 34°
2026-05-07 01:47 -6.05082 -62.12110 33013 ft 477 kts 34°
2026-05-07 01:47 -5.99540 -62.08443 33019 ft 477 kts 34°
2026-05-07 01:48 -5.94032 -62.04805 33017 ft 477 kts 34°
2026-05-07 01:48 -5.88487 -62.01147 33017 ft 477 kts 34°
2026-05-07 01:49 -5.82947 -61.97482 33026 ft 477 kts 34°
2026-05-07 01:49 -5.77402 -61.93823 33024 ft 477 kts 34°
2026-05-07 01:50 -5.71856 -61.90165 33026 ft 477 kts 34°
2026-05-07 01:50 -5.66356 -61.86529 33028 ft 477 kts 34°
2026-05-07 01:51 -5.60812 -61.82877 33028 ft 477 kts 33°
2026-05-07 01:51 -5.54994 -61.79681 33031 ft 477 kts 29°
2026-05-07 01:52 -5.49139 -61.76545 33027 ft 477 kts 29°
2026-05-07 01:52 -5.43285 -61.73416 33024 ft 477 kts 29°
2026-05-07 01:53 -5.37471 -61.70299 33026 ft 477 kts 29°
2026-05-07 01:53 -5.31626 -61.67165 33036 ft 477 kts 29°
2026-05-07 01:54 -5.25776 -61.64027 33028 ft 477 kts 29°
2026-05-07 01:54 -5.19929 -61.60896 33037 ft 476 kts 29°
2026-05-07 01:55 -5.14077 -61.57768 33031 ft 476 kts 29°
2026-05-07 01:55 -5.08269 -61.54657 33030 ft 476 kts 29°
2026-05-07 01:56 -5.02428 -61.51519 33035 ft 476 kts 29°
2026-05-07 01:56 -4.96595 -61.48384 33034 ft 476 kts 29°
2026-05-07 01:57 -4.90756 -61.45259 33033 ft 476 kts 29°
2026-05-07 01:57 -4.84953 -61.42160 33035 ft 476 kts 29°
2026-05-07 01:58 -4.79113 -61.39039 33030 ft 476 kts 29°
2026-05-07 01:58 -4.73277 -61.35918 33026 ft 476 kts 29°
2026-05-07 01:59 -4.67440 -61.32792 33028 ft 476 kts 29°
2026-05-07 01:59 -4.61598 -61.29670 33018 ft 476 kts 29°
2026-05-07 02:00 -4.55794 -61.26562 33022 ft 476 kts 29°
2026-05-07 02:00 -4.49956 -61.23438 33021 ft 476 kts 29°
2026-05-07 02:01 -4.44107 -61.20318 33027 ft 476 kts 29°
2026-05-07 02:01 -4.38265 -61.17199 33030 ft 476 kts 29°
2026-05-07 02:02 -4.32463 -61.14101 33022 ft 476 kts 29°
2026-05-07 02:02 -4.26688 -61.11015 32753 ft 466 kts 29°
2026-05-07 02:02 -4.23807 -61.09477 31537 ft 473 kts 29°
2026-05-07 02:03 -4.20883 -61.07915 30370 ft 479 kts 29°
2026-05-07 02:03 -4.17936 -61.06339 29317 ft 479 kts 29°
2026-05-07 02:03 -4.15000 -61.04771 28349 ft 477 kts 29°
2026-05-07 02:03 -4.12083 -61.03214 27499 ft 473 kts 30°
2026-05-07 02:04 -4.09228 -61.01690 26715 ft 469 kts 30°
2026-05-07 02:04 -4.06366 -61.00164 26073 ft 462 kts 30°
2026-05-07 02:04 -4.03543 -60.98661 25416 ft 457 kts 30°
2026-05-07 02:04 -4.00749 -60.97174 24767 ft 453 kts 30°
2026-05-07 02:05 -3.97983 -60.95697 24136 ft 449 kts 30°
2026-05-07 02:05 -3.95239 -60.94234 23496 ft 445 kts 30°
2026-05-07 02:05 -3.92516 -60.92783 22839 ft 440 kts 30°
2026-05-07 02:05 -3.89833 -60.91351 22283 ft 434 kts 30°
2026-05-07 02:06 -3.87184 -60.89937 21753 ft 429 kts 30°
2026-05-07 02:06 -3.84569 -60.88541 21236 ft 423 kts 30°
2026-05-07 02:06 -3.81990 -60.87163 20731 ft 418 kts 30°
2026-05-07 02:06 -3.79431 -60.85796 20227 ft 414 kts 30°
2026-05-07 02:07 -3.76933 -60.84461 19741 ft 411 kts 30°
2026-05-07 02:07 -3.71923 -60.81793 18745 ft 405 kts 30°
2026-05-07 02:07 -3.69575 -60.80256 18209 ft 402 kts 38°
2026-05-07 02:08 -3.67343 -60.78588 17648 ft 399 kts 38°
2026-05-07 02:08 -3.65130 -60.76934 17124 ft 396 kts 38°
2026-05-07 02:08 -3.62934 -60.75293 16599 ft 393 kts 38°
2026-05-07 02:08 -3.60752 -60.73661 16073 ft 390 kts 38°
2026-05-07 02:09 -3.58582 -60.72040 15542 ft 388 kts 38°
2026-05-07 02:09 -3.56451 -60.70450 15016 ft 386 kts 38°
2026-05-07 02:09 -3.54303 -60.68846 14480 ft 384 kts 38°
2026-05-07 02:09 -3.52165 -60.67249 13946 ft 383 kts 38°
2026-05-07 02:10 -3.50037 -60.65663 13363 ft 381 kts 38°
2026-05-07 02:10 -3.47924 -60.64091 12811 ft 377 kts 38°
2026-05-07 02:10 -3.45830 -60.62531 12270 ft 373 kts 38°
2026-05-07 02:10 -3.43762 -60.60988 11730 ft 370 kts 38°
2026-05-07 02:11 -3.41713 -60.59459 11169 ft 367 kts 38°
2026-05-07 02:11 -3.39678 -60.57939 10646 ft 363 kts 38°
2026-05-07 02:11 -3.37721 -60.56479 10504 ft 348 kts 38°
2026-05-07 02:11 -3.35819 -60.55061 10383 ft 333 kts 38°
2026-05-07 02:12 -3.33998 -60.53704 10268 ft 320 kts 38°
2026-05-07 02:12 -3.32245 -60.52396 10155 ft 308 kts 38°
2026-05-07 02:12 -3.30560 -60.51138 10023 ft 297 kts 38°
2026-05-07 02:12 -3.28917 -60.49910 9662 ft 295 kts 38°
2026-05-07 02:13 -3.27282 -60.48685 9338 ft 291 kts 38°
2026-05-07 02:13 -3.25654 -60.47468 8917 ft 291 kts 38°
2026-05-07 02:13 -3.24046 -60.46269 8567 ft 288 kts 38°
2026-05-07 02:13 -3.22505 -60.45121 8231 ft 285 kts 38°
2026-05-07 02:14 -3.20927 -60.43944 7920 ft 281 kts 38°
2026-05-07 02:14 -3.19364 -60.42778 7616 ft 279 kts 39°
2026-05-07 02:14 -3.17812 -60.41621 7314 ft 277 kts 38°
2026-05-07 02:14 -3.16272 -60.40475 7016 ft 276 kts 39°
2026-05-07 02:15 -3.14737 -60.39333 6715 ft 274 kts 39°
2026-05-07 02:15 -3.13211 -60.38196 6414 ft 272 kts 39°
2026-05-07 02:15 -3.11708 -60.37077 6107 ft 267 kts 39°
2026-05-07 02:15 -3.10234 -60.35981 5813 ft 261 kts 39°
2026-05-07 02:16 -3.08810 -60.34921 5526 ft 256 kts 39°
2026-05-07 02:16 -3.07397 -60.33867 5249 ft 251 kts 39°
2026-05-07 02:16 -3.06016 -60.32837 4972 ft 245 kts 39°
2026-05-07 02:16 -3.04775 -60.31705 4696 ft 239 kts 54°
2026-05-07 02:17 -3.04014 -60.30261 4414 ft 233 kts 74°
2026-05-07 02:17 -3.03801 -60.28683 4156 ft 227 kts 90°
2026-05-07 02:17 -3.03807 -60.27131 4030 ft 218 kts 90°
2026-05-07 02:17 -3.03812 -60.25650 3882 ft 210 kts 90°
2026-05-07 02:18 -3.03815 -60.24201 3651 ft 207 kts 90°
2026-05-07 02:18 -3.03819 -60.22786 3411 ft 200 kts 90°
2026-05-07 02:18 -3.03822 -60.21429 3144 ft 195 kts 89°
2026-05-07 02:18 -3.03825 -60.20099 2898 ft 189 kts 89°
2026-05-07 02:19 -3.03828 -60.18798 2658 ft 184 kts 89°
2026-05-07 02:19 -3.03831 -60.17530 2424 ft 180 kts 89°
2026-05-07 02:19 -3.03834 -60.16294 2194 ft 176 kts 89°
2026-05-07 02:19 -3.03837 -60.15083 1967 ft 172 kts 89°
2026-05-07 02:20 -3.03839 -60.13899 1752 ft 167 kts 89°
2026-05-07 02:20 -3.03842 -60.12773 1528 ft 156 kts 90°
2026-05-07 02:20 -3.03844 -60.11741 1355 ft 148 kts 90°
2026-05-07 02:20 -3.03846 -60.10701 1162 ft 146 kts 90°
2026-05-07 02:21 -3.03848 -60.10035 1041 ft 145 kts 90°
2026-05-07 02:21 -3.03850 -60.09027 855 ft 144 kts 89°
2026-05-07 02:21 -3.03853 -60.07684 596 ft 145 kts 90°
2026-05-07 02:21 -3.03859 -60.07017 453 ft 144 kts 90°
2026-05-07 02:22 -3.03857 -60.05706 273 ft 134 kts 89°
2026-05-07 02:22 -3.03854 -60.05105 274 ft 132 kts 89°
2026-05-07 02:22 -3.03872 -60.03700 945 ft 161 kts 89°
2026-05-07 02:22 -3.03861 -60.02962 1531 ft 159 kts 88°
2026-05-07 02:23 -3.03829 -60.01838 2269 ft 163 kts 87°
2026-05-07 02:23 -3.03701 -60.00744 3069 ft 149 kts 69°
2026-05-07 02:23 -3.03074 -59.99891 3419 ft 165 kts 34°
2026-05-07 02:23 -3.01898 -59.99579 3666 ft 192 kts 354°
2026-05-07 02:24 -3.00685 -60.00224 3981 ft 212 kts 311°
2026-05-07 02:24 -2.99949 -60.01579 3993 ft 232 kts 296°
2026-05-07 02:24 -2.99167 -60.03612 4006 ft 239 kts 288°
2026-05-07 02:24 -2.98849 -60.04688 4008 ft 239 kts 286°
2026-05-07 02:25 -2.98416 -60.06273 4010 ft 239 kts 285°
2026-05-07 02:25 -2.97985 -60.07883 4010 ft 240 kts 285°
2026-05-07 02:25 -2.97547 -60.09491 4010 ft 240 kts 286°
2026-05-07 02:25 -2.97103 -60.11098 4016 ft 240 kts 286°
2026-05-07 02:26 -2.96653 -60.12702 4009 ft 239 kts 287°
2026-05-07 02:26 -2.96053 -60.14826 4010 ft 240 kts 287°
2026-05-07 02:26 -2.95746 -60.15908 4009 ft 240 kts 287°
2026-05-07 02:26 -2.95291 -60.17513 4009 ft 240 kts 287°
2026-05-07 02:27 -2.94862 -60.19125 4009 ft 240 kts 278°
2026-05-07 02:27 -2.95014 -60.20744 4006 ft 239 kts 247°
2026-05-07 02:27 -2.95960 -60.22081 4008 ft 237 kts 216°
2026-05-07 02:27 -2.97419 -60.22774 4011 ft 232 kts 186°
2026-05-07 02:28 -2.99028 -60.22846 3868 ft 232 kts 177°
2026-05-07 02:28 -3.00603 -60.22624 3491 ft 231 kts 159°
2026-05-07 02:28 -3.02020 -60.21874 3152 ft 228 kts 139°
2026-05-07 02:28 -3.03066 -60.20729 2958 ft 220 kts 120°
2026-05-07 02:29 -3.03673 -60.19359 2734 ft 214 kts 103°
2026-05-07 02:29 -3.03832 -60.17919 2479 ft 210 kts 89°
2026-05-07 02:29 -3.03833 -60.16480 2250 ft 204 kts 89°
2026-05-07 02:29 -3.03836 -60.15078 1990 ft 199 kts 89°
2026-05-07 02:30 -3.03839 -60.13721 1705 ft 189 kts 89°
2026-05-07 02:30 -3.03842 -60.12450 1471 ft 177 kts 89°
2026-05-07 02:30 -3.03845 -60.11276 1270 ft 160 kts 89°
2026-05-07 02:30 -3.03848 -60.10206 1068 ft 149 kts 89°
2026-05-07 02:31 -3.03850 -60.09183 883 ft 146 kts 89°
2026-05-07 02:31 -3.03852 -60.08172 695 ft 145 kts 89°
2026-05-07 02:31 -3.03852 -60.07182 482 ft 144 kts 88°
2026-05-07 02:31 -3.03855 -60.06186 320 ft 143 kts 89°
2026-05-07 02:32 -3.03859 -60.05260 268 ft 118 kts 90°
2026-05-07 02:32 -3.03860 -60.04613 269 ft 68 kts 90°
2026-05-07 02:32 -3.03861 -60.04217 269 ft 52 kts 89°
2026-05-07 02:32 -3.03863 -60.03910 268 ft 26 kts 90°
2026-05-07 02:33 -3.03838 -60.03792 268 ft 16 kts 49°
2026-05-07 02:33 -3.03734 -60.03778 269 ft 17 kts 333°
2026-05-07 02:33 -3.03674 -60.03879 268 ft 18 kts 285°
2026-05-07 02:33 -3.03639 -60.04008 268 ft 20 kts 285°
2026-05-07 02:34 -3.03599 -60.04144 268 ft 21 kts 287°
2026-05-07 02:34 -3.03542 -60.04278 268 ft 21 kts 308°
2026-05-07 02:34 -3.03434 -60.04362 268 ft 19 kts 336°
2026-05-07 02:34 -3.03345 -60.04388 268 ft 12 kts 338°
2026-05-07 02:35 -3.03338 -60.04456 268 ft 9 kts 259°
2026-05-07 02:35 -3.03322 -60.04488 268 ft 5 kts
2026-05-07 02:35 -3.03283 -60.04494 268 ft 6 kts 349°
2026-05-07 02:35 -3.03277 -60.04495 268 ft 2 kts 349°
2026-05-07 02:36 -3.03262 -60.04498 268 ft 1 kts 349°
2026-05-07 02:36 -3.03260 -60.04498 268 ft 0 kts 349°